Location: Stoke Bliss
(52.2667°N, 2.5167°W)
Time: 16:07:07
(UTC+00:00)

N. Korean satellite - Pass Details

Date: 10 December 2021
Orbit: 446 x 492 km, 97.3° (Epoch: 16 January)

Event Time Altitude Azimuth Distance (km) Brightness Sun altitude
Rises 06:32:33 0° 3° (N) 2,467 10.0 -13.6°
Reaches altitude 10° 06:34:51 10° 348° (NNW) 1,587 8.9 -13.3°
Enters shadow 06:37:23 22° 300° (WNW) 1,023 7.6 -12.9°
Exits shadow 06:40:04 11° 244° (WSW) 1,513 8.7 -12.5°
Drops below altitude 10° 06:40:15 10° 242° (WSW) 1,578 8.8 -12.5°
Sets 06:42:33 0° 227° (SW) 2,448 9.9 -12.2°
